Location: Baili�vre
(50.0696°N, 4.2409°E)
Time: 17:48:45
(UTC+00:00)

Cosmos 1862 - Pass Details

Date: 08 August 2020
Orbit: 537 x 557 km, 82.5° (Epoch: 25 September)

Event Time Altitude Azimuth Distance (km) Brightness Sun altitude
Rises 19:56:25 0° 182° (S) 2,724 6.5 -6.8°
Reaches altitude 10° 19:58:35 10° 179° (S) 1,837 5.7 -7.0°
Maximum altitude 20:02:36 68° 97° (E) 606 3.3 -7.6°
Drops below altitude 10° 20:06:40 10° 15° (NNE) 1,857 6.3 -8.1°
Sets 20:08:51 0° 13° (NNE) 2,758 7.2 -8.4°
